Regional Weather Roundup
Issued by NWS Memphis, TN

Home | Current Version | Previous Version | Text Only | Print | Product List | Glossary On
Versions: 1 2 3 4 5 6 7 8 9 10 11 12 13 14 15 16 17 18 19 20 21 22 23 24 25 26 27 28 29 30 31 32 33 34 35 36 37 38 39 40 41 42 43 44 45 46 47 48 49 50
000
ASUS44 KMEG 180200
RWRMEG
MEMPHIS CWA HOURLY WEATHER ROUNDUP
NATIONAL WEATHER SERVICE MEMPHIS TN
900 PM CDT WED SEP 17 2014

...WEST TENNESSEE...

CITY           SKY/WX    TMP DP  RH WIND       PRES   REMARKS
MEMPHIS INTL   CLOUDY    72  64  76 E8        29.93R
NWS MEMPHIS      N/A     68 N/A N/A MISG        N/A
JACKSON        MOCLDY    63  60  90 CALM      29.97R
LEXINGTON      PTCLDY    61  59  94 CALM      29.96R
SAVANNAH       MOCLDY    63  59  88 CALM      29.96R
DYERSBURG      MOCLDY    63  52  67 CALM      29.98R
UNION CITY     CLEAR     57  55  94 CALM      29.96S
PARIS          CLEAR     57  55  94 CALM      29.98R


...EASTERN ARKANSAS...

CITY           SKY/WX    TMP DP  RH WIND       PRES   REMARKS
JONESBORO      MOCLDY    62  62 100 NE5       29.94R
WEST MEMPHIS   CLOUDY    68  65  90 NE6       29.92R
BATESVILLE     CLOUDY    64  63  94 NE3       29.93R
WALNUT RIDGE   PTCLDY    61  59  94 NE5       29.95R
BLYTHEVILLE    CLOUDY    65  63  93 E5        29.96R
STUTTGART      CLOUDY    73  66  78 SE7       29.90S
PINE BLUFF     PTCLDY    75  69  81 S3        29.89F
MONTICELLO     PTCLDY    75  70  84 S3        29.90F


...NORTH MISSISSIPPI...

CITY           SKY/WX    TMP DP  RH WIND       PRES   REMARKS
TUPELO         PTCLDY    73  66  78 NE5       29.95R
OXFORD         PTCLDY    68  66  94 CALM      29.95R
OLIVE BRANCH   CLEAR     66  66 100 NE6       29.94R
GRENADA        PTCLDY    72  68  88 CALM      29.92F
GREENWOOD      PTCLDY    74  68  81 E5        29.92R
STARKVILLE     FAIR      70  64  83 CALM      29.93S
GOLDEN TRIANGL CLEAR     75  64  69 NE3       29.93S


...SOUTHEAST MISSOURI...

CITY           SKY/WX    TMP DP  RH WIND       PRES   REMARKS
WEST PLAINS    MOCLDY    63  61  93 E7        29.96R
POPLAR BLUFF   CLOUDY    63  58  83 CALM      29.96R
CAPE GIRARDEAU CLEAR     59  57  93 CALM      29.96R


...NORTHWEST ALABAMA...

CITY           SKY/WX    TMP DP  RH WIND       PRES   REMARKS
MUSCLE SHOALS  CLEAR     66  57  72 S5        29.96F


...MIDDLE TENNESSEE...

CITY           SKY/WX    TMP DP  RH WIND       PRES   REMARKS
NASHVILLE      CLOUDY    65  58  78 CALM      29.98R
CLARKSVILLE    PTCLDY    62  56  80 CALM      29.97F
COLUMBIA       CLEAR     64  63  94 CALM      29.95F


...WESTERN KENTUCKY...

CITY           SKY/WX    TMP DP  RH WIND       PRES   REMARKS
PADUCAH        CLOUDY    67  60  78 CALM      29.96R
FORT CAMPBELL  CLOUDY    66  58  77 S1        29.97S


...CENTRAL ARKANSAS...

CITY           SKY/WX    TMP DP  RH WIND       PRES   REMARKS
LITTLE ROCK    CLOUDY    76  68  76 SE5       29.89R


SKY/WX REPORTED AS FAIR MEANS FEW OR NO CLOUDS BELOW
12 THOUSAND FEET.



USA.gov is the U.S. government's official web portal to all federal, state and local government web resources and services.